Storm Lake, IA

3:56 PM CST on November 21, 2019 (GMT -0600)
Storm Lake Municipal

Weather History for KSLB - October, 2019

Change the Weather History Date:

Monday, October 21, 2019

  Actual Average Record
Temperature  
Mean Temperature 46 °F -  
Max Temperature 50 °F 58 °F 78 °F (2003)
Min Temperature 41 °F 39 °F 26 °F (2018)
Degree Days  
Heating Degree Days 20    
Moisture  
Dew Point 46 °F    
Average Humidity 98    
Maximum Humidity 100    
Minimum Humidity 93    
Precipitation  
Precipitation 0.10 in - - ()
Sea Level Pressure  
Sea Level Pressure 29.34 in    
Wind  
Wind Speed 12 mph ()    
Max Wind Speed 34 mph    
Max Gust Speed 50 mph    
Visibility 7.5 miles    
Events Rain    
Averages and records for this station are not official NWS values.
T = Trace of Precipitation, MM = Missing Value Source: Averaged Metar Reports

Daily Weather History Graph

Daily Weather History Graph

Search for Another Location

Airport or City:

Astronomy

Oct. 21, 2019 Rise Set
Actual Time 7:40 AM CDT 6:29 PM CDT
Civil Twilight 7:12 AM CDT 6:58 PM CDT
Nautical Twilight 6:39 AM CDT 7:31 PM CDT
Astronomical Twilight 6:06 AM CDT 8:03 PM CDT
Moon No Moon Rise 3:04 PM CDT
Length of Visible Light 11h 45m
Length of Day
10h 48m
Waning Gibbous, 48% of the Moon is Illuminated
Oct 21
Waning Gibbous
Oct 27
New
Nov 4
First Quarter
Nov 12
Full
Nov 19
Last Quarter

Hourly Weather History & Observations

Time (CDT) Temp. Windchill Dew Point Humidity Pressure Visibility Wind Dir Wind Speed Gust Speed Precip Events Conditions
12:15 AM 50.0 °F - 50.0 °F 100% 29.52 in 3.0 mi East 13.8 mph 19.6 mph N/A   Overcast
12:35 AM 50.0 °F - 50.0 °F 100% 29.50 in 7.0 mi ESE 8.1 mph 19.6 mph N/A   Overcast
12:55 AM 50.0 °F - 50.0 °F 100% 29.51 in 10.0 mi SE 8.1 mph - N/A   Overcast
1:15 AM 50.0 °F - 50.0 °F 100% 29.50 in 10.0 mi SE 9.2 mph 19.6 mph N/A   Overcast
1:35 AM 50.0 °F - 50.0 °F 100% 29.48 in 10.0 mi SE 10.4 mph - N/A   Overcast
1:55 AM 50.0 °F - 50.0 °F 100% 29.46 in 10.0 mi SE 11.5 mph - N/A   Overcast
2:15 AM 50.0 °F - 50.0 °F 100% 29.44 in 10.0 mi SE 9.2 mph 17.3 mph N/A   Overcast
2:35 AM 50.0 °F - 50.0 °F 100% 29.44 in 10.0 mi SE 12.7 mph - N/A   Overcast
2:55 AM 50.0 °F - 50.0 °F 100% 29.42 in 10.0 mi SE 10.4 mph 17.3 mph N/A   Overcast
3:15 AM 50.0 °F - 50.0 °F 100% 29.39 in 10.0 mi ESE 10.4 mph - N/A   Overcast
3:35 AM 50.0 °F - 50.0 °F 100% 29.38 in 10.0 mi SE 10.4 mph 16.1 mph N/A   Overcast
3:55 AM 50.0 °F - 50.0 °F 100% 29.37 in 10.0 mi SE 8.1 mph - N/A   Overcast
4:15 AM 50.0 °F - 50.0 °F 100% 29.37 in 10.0 mi ESE 6.9 mph - N/A   Overcast
4:35 AM 50.0 °F - 50.0 °F 100% 29.37 in 10.0 mi SE 6.9 mph 13.8 mph N/A   Overcast
4:55 AM 50.0 °F - 50.0 °F 100% 29.36 in 4.0 mi SE 10.4 mph 16.1 mph N/A   Mostly Cloudy
5:15 AM 50.0 °F - 50.0 °F 100% 29.35 in 5.0 mi South 6.9 mph - N/A   Mostly Cloudy
5:35 AM 48.2 °F - 48.2 °F 100% 29.34 in 4.0 mi SE 5.8 mph - N/A Rain Light Rain
5:55 AM 50.0 °F - 50.0 °F 100% 29.33 in 10.0 mi SSE 5.8 mph - N/A   Overcast
6:15 AM 50.0 °F - 48.2 °F 94% 29.32 in 10.0 mi South 4.6 mph - N/A   Overcast
6:35 AM 50.0 °F - 48.2 °F 94% 29.31 in 7.0 mi Calm Calm - N/A   Overcast
6:55 AM 50.0 °F - 48.2 °F 94% 29.29 in 10.0 mi Calm Calm - N/A   Overcast
7:15 AM 48.2 °F - 48.2 °F 100% 29.27 in 10.0 mi West 4.6 mph - N/A   Mostly Cloudy
7:35 AM 48.2 °F - 48.2 °F 100% 29.25 in - West 8.1 mph - N/A   Unknown
7:55 AM 46.4 °F 45.2 °F 46.4 °F 100% 29.25 in 10.0 mi NW 3.5 mph - N/A   Clear
8:15 AM 46.4 °F 42.4 °F 46.4 °F 100% 29.26 in 4.0 mi NNE 8.1 mph - N/A   Partly Cloudy
8:35 AM 48.2 °F - 48.2 °F 100% 29.26 in 9.0 mi Calm Calm - N/A   Partly Cloudy
8:55 AM 48.2 °F - 48.2 °F 100% 29.26 in 10.0 mi Calm Calm - N/A   Clear
9:15 AM 48.2 °F - 48.2 °F 100% 29.26 in 9.0 mi SSW 9.2 mph - N/A   Partly Cloudy
9:35 AM 48.2 °F - 48.2 °F 100% 29.27 in 10.0 mi WSW 4.6 mph - N/A   Scattered Clouds
9:55 AM 48.2 °F - 46.4 °F 93% 29.27 in 10.0 mi WSW 6.9 mph - N/A   Mostly Cloudy
10:15 AM 48.2 °F - 46.4 °F 93% 29.27 in 10.0 mi SW 6.9 mph - N/A   Mostly Cloudy
10:35 AM 46.4 °F 42.4 °F 46.4 °F 100% 29.27 in 10.0 mi WSW 8.1 mph - N/A   Mostly Cloudy
10:55 AM 46.4 °F 41.1 °F 46.4 °F 100% 29.26 in 7.0 mi WSW 11.5 mph - N/A   Mostly Cloudy
11:15 AM 48.2 °F - 48.2 °F 100% 29.26 in 4.0 mi WSW 9.2 mph 16.1 mph N/A   Mostly Cloudy
11:35 AM 48.2 °F - 48.2 °F 100% 29.26 in 3.0 mi West 8.1 mph - N/A Rain Light Rain
11:55 AM 48.2 °F - 48.2 °F 100% 29.26 in 1.8 mi West 9.2 mph - N/A Rain Light Rain
12:15 PM 46.4 °F - 46.4 °F 100% 29.25 in 2.0 mi North - - N/A Rain Light Rain
12:35 PM 46.4 °F 41.5 °F 46.4 °F 100% 29.25 in 8.0 mi WSW 10.4 mph - N/A Rain Light Rain
12:55 PM 46.4 °F 41.9 °F 46.4 °F 100% 29.25 in 9.0 mi WSW 9.2 mph 15.0 mph N/A Rain Light Rain
1:15 PM 48.2 °F - 48.2 °F 100% 29.25 in 10.0 mi WSW 10.4 mph - N/A   Unknown
1:35 PM 48.2 °F - 46.4 °F 93% 29.25 in 10.0 mi WSW 11.5 mph - N/A   Partly Cloudy
1:55 PM 46.4 °F 41.5 °F 44.6 °F 93% 29.25 in 2.5 mi SW 10.4 mph - N/A Rain Rain
2:15 PM 46.4 °F 41.9 °F 46.4 °F 100% 29.24 in 10.0 mi SW 9.2 mph - N/A   Scattered Clouds
2:35 PM 48.2 °F - 48.2 °F 100% 29.23 in 8.0 mi SW 10.4 mph - N/A   Mostly Cloudy
2:55 PM 50.0 °F - 48.2 °F 94% 29.24 in 8.0 mi WNW 23.0 mph 32.2 mph 0.01 in Rain Light Rain
3:15 PM 50.0 °F - 48.2 °F 94% 29.24 in 10.0 mi West 23.0 mph - N/A   Mostly Cloudy
3:35 PM 48.2 °F - 46.4 °F 93% 29.25 in 10.0 mi West 25.3 mph 33.4 mph N/A   Unknown
3:55 PM 48.2 °F - 48.2 °F 100% 29.26 in 9.0 mi West 21.9 mph 29.9 mph N/A   Unknown
4:15 PM 46.4 °F 37.9 °F 46.4 °F 100% 29.27 in 4.0 mi WNW 25.3 mph 39.1 mph N/A Rain Light Rain
4:35 PM 42.8 °F 34.5 °F 42.8 °F 100% 29.30 in 6.0 mi NW 18.4 mph 33.4 mph N/A Rain Light Rain
4:55 PM 42.8 °F 34.0 °F 42.8 °F 100% 29.31 in 6.0 mi WNW 20.7 mph 34.5 mph 0.02 in Rain Light Rain
5:15 PM 42.8 °F 33.1 °F 41.0 °F 93% 29.33 in 6.0 mi WNW 25.3 mph 32.2 mph N/A Rain Light Rain
5:35 PM 42.8 °F 34.0 °F 41.0 °F 93% 29.34 in 6.0 mi WNW 20.7 mph 31.1 mph N/A Rain Light Rain
5:55 PM 42.8 °F 33.5 °F 41.0 °F 93% 29.35 in 9.0 mi West 23.0 mph 31.1 mph 0.02 in Rain Light Rain
6:15 PM 42.8 °F 33.5 °F 41.0 °F 93% 29.36 in 4.0 mi West 23.0 mph 31.1 mph N/A Rain Light Rain
6:35 PM 41.0 °F 31.9 °F 41.0 °F 100% 29.36 in 5.0 mi WNW 19.6 mph 31.1 mph N/A Rain Light Rain
6:55 PM 41.0 °F 30.9 °F 41.0 °F 100% 29.37 in 5.0 mi West 24.2 mph 32.2 mph 0.01 in Rain Light Rain
7:15 PM 42.8 °F 32.7 °F 42.8 °F 100% 29.38 in 7.0 mi WNW 27.6 mph 39.1 mph N/A Rain Light Rain
7:35 PM 42.8 °F 34.3 °F 42.8 °F 100% 29.38 in 4.0 mi WNW 19.6 mph 36.8 mph N/A Rain Light Rain
7:55 PM 42.8 °F 33.1 °F 42.8 °F 100% 29.39 in 6.0 mi West 25.3 mph 32.2 mph N/A Rain Light Rain
8:15 PM 44.6 °F 35.7 °F 42.8 °F 93% 29.39 in 7.0 mi WNW 24.2 mph 39.1 mph N/A Rain Light Rain
8:35 PM 44.6 °F 34.7 °F 42.8 °F 93% 29.40 in 7.0 mi WNW 29.9 mph 42.6 mph N/A Rain Light Rain
8:55 PM 44.6 °F 35.5 °F 42.8 °F 93% 29.41 in 4.0 mi WNW 25.3 mph 43.7 mph 0.01 in Rain Light Rain
9:15 PM 42.8 °F 31.8 °F 42.8 °F 100% 29.41 in 4.0 mi WNW 33.4 mph 42.6 mph N/A Rain Rain
9:35 PM 42.8 °F 32.3 °F 42.8 °F 100% 29.42 in 4.0 mi WNW 29.9 mph 41.4 mph N/A Rain Light Rain
9:55 PM 42.8 °F 32.3 °F 42.8 °F 100% 29.44 in 3.0 mi WNW 29.9 mph 40.3 mph 0.02 in   Mostly Cloudy
10:15 PM 42.8 °F 32.5 °F 42.8 °F 100% 29.44 in 6.0 mi WNW 28.8 mph 39.1 mph N/A Rain Light Rain
10:35 PM 42.8 °F 31.6 °F 42.8 °F 100% 29.45 in 8.0 mi WNW 34.5 mph 49.5 mph N/A Rain Light Rain
10:55 PM 42.8 °F 32.3 °F 42.8 °F 100% 29.46 in 10.0 mi WNW 29.9 mph 43.7 mph 0.01 in   Overcast
11:15 PM 42.8 °F 32.5 °F 42.8 °F 100% 29.47 in 10.0 mi WNW 28.8 mph 42.6 mph N/A   Overcast
11:35 PM 42.8 °F 32.3 °F 41.0 °F 93% 29.48 in 10.0 mi WNW 29.9 mph 42.6 mph N/A   Overcast
11:55 PM 42.8 °F 32.5 °F 41.0 °F 93% 29.49 in 10.0 mi WNW 28.8 mph 40.3 mph N/A   Overcast